• In Austria
  • List of Countries
  • For 7 days
  • Water Temperature
  • Satellite Maps
  • Weather Map
  • News
  • Weather Widgets
  • user-avatar
    Login

    Hourly Weather Dziecioly

    Today, 20 August, Monday

    Time Temperature Precipitation Wind Pressure Humidity
    00:00 +24°C° 0 mm 2 mps 750 mmHg 53%
    01:00 +23°C° 0 mm 2 mps 749 mmHg 54%
    02:00 +23°C° 0 mm 2 mps 749 mmHg 57%
    03:00 +23°C° 0 mm 2 mps 749 mmHg 59%
    04:00 +23°C° 0 mm 2 mps 749 mmHg 62%
    05:00 +23°C° 0 mm 2 mps 749 mmHg 61%
    06:00 +24°C° 0 mm 3 mps 749 mmHg 61%
    07:00 +25°C° 0 mm 3 mps 749 mmHg 61%
    08:00 +27°C° 0 mm 3 mps 749 mmHg 56%
    09:00 +28°C° 0 mm 4 mps 749 mmHg 51%
    10:00 +30°C° 0 mm 4 mps 749 mmHg 46%
    11:00 +30°C° 0 mm 4 mps 749 mmHg 44%
    12:00 +32°C° 0 mm 5 mps 749 mmHg 41%
    13:00 +32°C° 0 mm 5 mps 748 mmHg 39%
    14:00 +32°C° 0 mm 5 mps 748 mmHg 40%
    15:00 +32°C° 0 mm 5 mps 748 mmHg 42%
    16:00 +30°C° 0 mm 5 mps 748 mmHg 43%
    17:00 +29°C° 0 mm 5 mps 748 mmHg 49%
    18:00 +27°C° 0 mm 4 mps 748 mmHg 55%
    19:00 +25°C° 0 mm 4 mps 748 mmHg 61%
    20:00 +24°C° 0 mm 3 mps 749 mmHg 65%
    21:00 +22°C° 0 mm 3 mps 749 mmHg 68%
    22:00 +21°C° 0 mm 2 mps 750 mmHg 71%
    23:00 +21°C° 0 mm 2 mps 750 mmHg 74%

    Tomorrow, 21 August, Tuesday

    Time Temperature Precipitation Wind Pressure Humidity
    00:00 +20°C° 0 mm 2 mps 750 mmHg 77%
    01:00 +19°C° 0 mm 2 mps 750 mmHg 80%
    02:00 +19°C° 0 mm 2 mps 750 mmHg 82%
    03:00 +18°C° 0 mm 2 mps 751 mmHg 85%
    04:00 +18°C° 0 mm 2 mps 751 mmHg 88%
    05:00 +18°C° 0 mm 2 mps 751 mmHg 82%
    06:00 +19°C° 0 mm 3 mps 752 mmHg 77%
    07:00 +19°C° 0 mm 3 mps 752 mmHg 72%
    08:00 +20°C° 0 mm 3 mps 752 mmHg 66%
    09:00 +21°C° 0 mm 3 mps 752 mmHg 61%
    10:00 +22°C° 0 mm 4 mps 752 mmHg 56%
    11:00 +23°C° 0 mm 4 mps 752 mmHg 51%
    12:00 +25°C° 0 mm 4 mps 752 mmHg 46%
    13:00 +26°C° 0 mm 4 mps 752 mmHg 41%
    14:00 +26°C° 0 mm 4 mps 752 mmHg 40%
    15:00 +26°C° 0 mm 3 mps 752 mmHg 38%
    16:00 +26°C° 0 mm 3 mps 752 mmHg 37%
    17:00 +24°C° 0 mm 3 mps 752 mmHg 41%
    18:00 +23°C° 0 mm 2 mps 752 mmHg 45%
    19:00 +20°C° 0 mm 2 mps 752 mmHg 49%
    20:00 +21°C° 0 mm 1 mps 752 mmHg 50%
    21:00 +20°C° 0 mm 1 mps 753 mmHg 52%
    22:00 +19°C° 0 mm 1 mps 753 mmHg 54%
    23:00 +19°C° 0 mm 1 mps 753 mmHg 56%

    Day after tomorrow, 22 August, Wednesday

    Time Temperature Precipitation Wind Pressure Humidity
    00:00 +18°C° 0 mm 1 mps 753 mmHg 58%
    01:00 +18°C° 0 mm 1 mps 753 mmHg 60%
    02:00 +18°C° 0 mm 1 mps 753 mmHg 61%
    03:00 +16°C° 0 mm 2 mps 753 mmHg 63%
    04:00 +16°C° 0 mm 2 mps 753 mmHg 65%
    05:00 +17°C° 0 mm 2 mps 753 mmHg 63%
    06:00 +18°C° 0 mm 2 mps 753 mmHg 62%
    07:00 +19°C° 0 mm 2 mps 753 mmHg 60%
    08:00 +21°C° 0 mm 2 mps 753 mmHg 54%
    09:00 +22°C° 0 mm 3 mps 753 mmHg 48%
    10:00 +25°C° 0 mm 3 mps 753 mmHg 43%
    11:00 +26°C° 0 mm 3 mps 752 mmHg 40%
    12:00 +27°C° 0 mm 3 mps 752 mmHg 38%
    13:00 +28°C° 0 mm 3 mps 752 mmHg 36%
    14:00 +28°C° 0 mm 3 mps 751 mmHg 36%
    15:00 +28°C° 0 mm 2 mps 751 mmHg 36%
    16:00 +28°C° 0 mm 2 mps 751 mmHg 35%
    17:00 +27°C° 0 mm 2 mps 751 mmHg 40%
    18:00 +25°C° 0 mm 2 mps 750 mmHg 44%
    19:00 +24°C° 0 mm 2 mps 750 mmHg 48%
    20:00 +23°C° 0 mm 2 mps 750 mmHg 51%
    21:00 +21°C° 0 mm 3 mps 750 mmHg 54%
    22:00 +20°C° 0 mm 3 mps 751 mmHg 56%
    23:00 +20°C° 0 mm 3 mps 750 mmHg 59%

    23 August, Thursday

    Time Temperature Precipitation Wind Pressure Humidity
    00:00 +19°C° 0 mm 3 mps 750 mmHg 62%
    01:00 +19°C° 0 mm 3 mps 750 mmHg 64%
    02:00 +18°C° 0 mm 3 mps 750 mmHg 66%
    03:00 +18°C° 0 mm 3 mps 749 mmHg 68%
    04:00 +18°C° 0 mm 3 mps 749 mmHg 70%
    05:00 +19°C° 0 mm 3 mps 749 mmHg 69%
    06:00 +20°C° 0 mm 3 mps 749 mmHg 67%
    07:00 +21°C° 0 mm 3 mps 749 mmHg 65%
    08:00 +24°C° 0 mm 3 mps 749 mmHg 58%
    09:00 +27°C° 0 mm 3 mps 749 mmHg 50%
    10:00 +29°C° 0 mm 3 mps 748 mmHg 43%
    11:00 +30°C° 0 mm 3 mps 748 mmHg 41%
    12:00 +31°C° 0 mm 3 mps 747 mmHg 39%
    13:00 +33°C° 0 mm 3 mps 747 mmHg 37%
    14:00 +33°C° 0 mm 3 mps 747 mmHg 37%
    15:00 +32°C° 0 mm 2 mps 746 mmHg 38%
    16:00 +32°C° 0 mm 2 mps 746 mmHg 39%
    17:00 +31°C° 0.1 mm 2 mps 746 mmHg 43%
    18:00 +29°C° 0.1 mm 3 mps 745 mmHg 48%
    19:00 +28°C° 0.1 mm 3 mps 745 mmHg 53%
    20:00 +27°C° 0.8 mm 3 mps 745 mmHg 56%
    21:00 +26°C° 0.8 mm 3 mps 745 mmHg 59%
    22:00 +25°C° 0.8 mm 3 mps 745 mmHg 62%
    23:00 +25°C° 0.2 mm 3 mps 745 mmHg 63%

    24 August, Friday

    Time Temperature Precipitation Wind Pressure Humidity
    00:00 +25°C° 0.2 mm 3 mps 745 mmHg 64%
    01:00 +24°C° 0.2 mm 3 mps 744 mmHg 65%
    02:00 +24°C° 0.5 mm 3 mps 744 mmHg 68%
    03:00 +22°C° 0.5 mm 3 mps 744 mmHg 70%
    04:00 +22°C° 0.5 mm 3 mps 743 mmHg 72%
    05:00 +22°C° 0.3 mm 3 mps 743 mmHg 70%
    06:00 +24°C° 0.3 mm 3 mps 743 mmHg 69%
    07:00 +25°C° 0.3 mm 4 mps 743 mmHg 67%
    08:00 +26°C° 0 mm 4 mps 743 mmHg 63%
    09:00 +28°C° 0 mm 4 mps 743 mmHg 58%
    10:00 +29°C° 0 mm 4 mps 743 mmHg 54%
    11:00 +30°C° 0.1 mm 4 mps 743 mmHg 51%
    12:00 +30°C° 0.1 mm 4 mps 743 mmHg 48%
    13:00 +32°C° 0.1 mm 4 mps 743 mmHg 44%
    14:00 +30°C° 0 mm 4 mps 743 mmHg 46%
    15:00 +30°C° 0 mm 4 mps 742 mmHg 47%
    16:00 +29°C° 0 mm 3 mps 742 mmHg 49%
    17:00 +27°C° 0.2 mm 4 mps 742 mmHg 55%
    18:00 +26°C° 0.2 mm 4 mps 743 mmHg 61%
    19:00 +23°C° 0.2 mm 4 mps 743 mmHg 67%
    20:00 +22°C° 0.3 mm 3 mps 743 mmHg 73%
    21:00 +21°C° 0.3 mm 3 mps 743 mmHg 79%
    22:00 +20°C° 0.3 mm 3 mps 744 mmHg 85%
    23:00 +20°C° 0.1 mm 3 mps 744 mmHg 86%

    25 August, Saturday

    Time Temperature Precipitation Wind Pressure Humidity
    00:00 +20°C° 0.1 mm 3 mps 744 mmHg 87%
    01:00 +19°C° 0.1 mm 3 mps 745 mmHg 88%
    02:00 +19°C° 0.4 mm 3 mps 745 mmHg 89%
    03:00 +18°C° 0.4 mm 4 mps 745 mmHg 89%
    04:00 +18°C° 0.4 mm 4 mps 745 mmHg 89%
    05:00 +18°C° 0.4 mm 4 mps 745 mmHg 89%
    06:00 +16°C° 0.4 mm 5 mps 746 mmHg 88%
    07:00 +16°C° 0.4 mm 5 mps 746 mmHg 88%
    08:00 +16°C° 0.8 mm 5 mps 746 mmHg 87%
    09:00 +15°C° 0.8 mm 5 mps 746 mmHg 87%
    10:00 +15°C° 0.8 mm 5 mps 746 mmHg 86%
    11:00 +14°C° 1.3 mm 6 mps 746 mmHg 87%
    12:00 +14°C° 1.3 mm 6 mps 746 mmHg 87%
    13:00 +14°C° 1.3 mm 7 mps 746 mmHg 87%
    14:00 +12°C° 0.9 mm 7 mps 746 mmHg 86%
    15:00 +12°C° 0.9 mm 7 mps 746 mmHg 85%
    16:00 +11°C° 0.9 mm 7 mps 746 mmHg 85%
    17:00 +11°C° 1.9 mm 6 mps 746 mmHg 86%
    18:00 +11°C° 1.9 mm 6 mps 746 mmHg 87%
    19:00 +10°C° 1.9 mm 6 mps 746 mmHg 88%
    20:00 +10°C° 0.5 mm 5 mps 746 mmHg 88%
    21:00 +10°C° 0.5 mm 5 mps 747 mmHg 88%
    22:00 +11°C° 0.5 mm 4 mps 747 mmHg 88%
    23:00 +11°C° 0 mm 4 mps 747 mmHg 88%
    Show more